Year,Month,Day,Hour,Minute,Value (Times are PST for temperature in C)
2010,09,17,10,04,14.90
2010,09,17,10,05,14.90
2010,09,17,10,06,15.00
2010,09,17,10,07,15.00
2010,09,17,10,08,15.00
2010,09,17,10,09,15.00
2010,09,17,10,10,15.00
2010,09,17,10,11,15.00
2010,09,17,10,12,15.00
2010,09,17,10,13,15.00
2010,09,17,10,14,15.00
2010,09,17,10,15,15.00
2010,09,17,10,16,15.00
2010,09,17,10,17,15.00
2010,09,17,10,18,15.10
2010,09,17,10,19,15.10
2010,09,17,10,20,15.20
2010,09,17,10,21,15.20
2010,09,17,10,22,15.20
2010,09,17,10,23,15.30
2010,09,17,10,24,15.30
2010,09,17,10,25,15.30
2010,09,17,10,26,15.40
2010,09,17,10,27,15.40
2010,09,17,10,28,15.40
2010,09,17,10,29,15.40
2010,09,17,10,30,15.50
2010,09,17,10,31,15.50
2010,09,17,10,32,15.60
2010,09,17,10,33,15.60
2010,09,17,10,34,15.60
2010,09,17,10,35,15.60
2010,09,17,10,36,15.60
2010,09,17,10,37,15.70
2010,09,17,10,38,15.70
2010,09,17,10,39,15.70
2010,09,17,10,40,15.80
2010,09,17,10,41,15.80
2010,09,17,10,42,15.80
2010,09,17,10,43,15.80
2010,09,17,10,44,15.80
2010,09,17,10,45,15.90
2010,09,17,10,46,15.90
2010,09,17,10,47,15.90
2010,09,17,10,48,15.90
2010,09,17,10,49,16.00
2010,09,17,10,50,16.00
2010,09,17,10,51,16.10
2010,09,17,10,52,16.10
2010,09,17,10,53,16.10
2010,09,17,10,54,16.10
2010,09,17,10,55,16.20
2010,09,17,10,56,16.20
2010,09,17,10,57,16.20
2010,09,17,10,58,16.20
2010,09,17,10,59,16.20
2010,09,17,11,00,16.20
2010,09,17,11,01,16.20
2010,09,17,11,02,16.30
2010,09,17,11,03,16.30
2010,09,17,11,04,16.30
2010,09,17,11,05,16.30
2010,09,17,11,06,16.30
2010,09,17,11,07,16.30
2010,09,17,11,08,16.30
2010,09,17,11,09,16.30
2010,09,17,11,10,16.30
2010,09,17,11,11,16.30
2010,09,17,11,12,16.30
2010,09,17,11,13,16.30
2010,09,17,11,14,16.30
2010,09,17,11,15,16.40
2010,09,17,11,16,16.30
2010,09,17,11,17,16.40
2010,09,17,11,18,16.40
2010,09,17,11,19,16.40
2010,09,17,11,20,16.40
2010,09,17,11,21,16.40
2010,09,17,11,22,16.40
2010,09,17,11,23,16.40
2010,09,17,11,24,16.50
2010,09,17,11,25,16.50
2010,09,17,11,26,16.50
2010,09,17,11,27,16.50
2010,09,17,11,28,16.50
2010,09,17,11,29,16.60
2010,09,17,11,30,16.60
2010,09,17,11,31,16.60
2010,09,17,11,32,16.60
2010,09,17,11,33,16.60
2010,09,17,11,34,16.60
2010,09,17,11,35,16.60
2010,09,17,11,36,16.60
2010,09,17,11,37,16.60
2010,09,17,11,38,16.60
2010,09,17,11,39,16.60
2010,09,17,11,40,16.60
2010,09,17,11,41,16.60
2010,09,17,11,42,16.60
2010,09,17,11,43,16.60
2010,09,17,11,44,16.60
2010,09,17,11,45,16.60
2010,09,17,11,46,16.60
2010,09,17,11,47,16.60
2010,09,17,11,48,16.60
2010,09,17,11,49,16.50
2010,09,17,11,50,16.60
2010,09,17,11,51,16.50
2010,09,17,11,52,16.50
2010,09,17,11,53,16.50
2010,09,17,11,54,16.50
2010,09,17,11,55,16.40
2010,09,17,11,56,16.40
2010,09,17,11,57,16.40
2010,09,17,11,58,16.40
2010,09,17,11,59,16.40
2010,09,17,12,00,16.40
2010,09,17,12,01,16.40
2010,09,17,12,02,16.40
2010,09,17,12,03,16.50
2010,09,17,12,04,16.50
2010,09,17,12,05,16.50
2010,09,17,12,06,16.50
2010,09,17,12,07,16.40
2010,09,17,12,08,16.40
2010,09,17,12,09,16.40
2010,09,17,12,10,16.40
2010,09,17,12,11,16.40
2010,09,17,12,12,16.40
2010,09,17,12,13,16.40
2010,09,17,12,14,16.40
2010,09,17,12,15,16.40
2010,09,17,12,16,16.40
2010,09,17,12,17,16.40
2010,09,17,12,18,16.40
2010,09,17,12,19,16.40
2010,09,17,12,20,16.40
2010,09,17,12,21,16.40
2010,09,17,12,22,16.40
2010,09,17,12,23,16.40
2010,09,17,12,24,16.40
2010,09,17,12,25,16.40
2010,09,17,12,26,16.40
2010,09,17,12,27,16.40
2010,09,17,12,28,16.40
2010,09,17,12,29,16.40
2010,09,17,12,30,16.50
2010,09,17,12,31,16.50
2010,09,17,12,32,16.50
2010,09,17,12,33,16.60
2010,09,17,12,34,16.60
2010,09,17,12,35,16.60
2010,09,17,12,36,16.60
2010,09,17,12,37,16.60
2010,09,17,12,38,16.60
2010,09,17,12,39,16.70
2010,09,17,12,40,16.70
2010,09,17,12,41,16.70
2010,09,17,12,42,16.70
2010,09,17,12,43,16.80
2010,09,17,12,44,16.80
2010,09,17,12,45,16.80
2010,09,17,12,46,16.80
2010,09,17,12,47,16.80
2010,09,17,12,48,16.90
2010,09,17,12,49,16.90
2010,09,17,12,50,17.00
2010,09,17,12,51,17.00
2010,09,17,12,52,17.00
2010,09,17,12,53,17.10
2010,09,17,12,54,17.10
2010,09,17,12,55,17.10
2010,09,17,12,56,17.10
2010,09,17,12,57,17.20
2010,09,17,12,58,17.20
2010,09,17,12,59,17.20
2010,09,17,13,00,17.30
2010,09,17,13,01,17.30
2010,09,17,13,02,17.30
2010,09,17,13,03,17.30
2010,09,17,13,04,17.30
2010,09,17,13,05,17.30
2010,09,17,13,06,17.30
2010,09,17,13,07,17.30
2010,09,17,13,08,17.40
2010,09,17,13,09,17.40
2010,09,17,13,10,17.40
2010,09,17,13,11,17.50
2010,09,17,13,12,17.50
2010,09,17,13,13,17.50
2010,09,17,13,14,17.60
2010,09,17,13,15,17.60
2010,09,17,13,16,17.60
2010,09,17,13,17,17.60
2010,09,17,13,18,17.60
2010,09,17,13,19,17.70
2010,09,17,13,20,17.70
2010,09,17,13,21,17.80
2010,09,17,13,22,17.80
2010,09,17,13,23,17.80
2010,09,17,13,24,17.90
2010,09,17,13,25,17.90
2010,09,17,13,26,18.00
2010,09,17,13,27,18.00
2010,09,17,13,28,18.10
2010,09,17,13,29,18.10
2010,09,17,13,30,18.10
2010,09,17,13,31,18.20
2010,09,17,13,32,18.20
2010,09,17,13,33,18.20
2010,09,17,13,34,18.30
2010,09,17,13,35,18.30
2010,09,17,13,36,18.30
2010,09,17,13,37,18.30
2010,09,17,13,38,18.30
2010,09,17,13,39,18.30
2010,09,17,13,40,18.20
2010,09,17,13,41,18.30
2010,09,17,13,42,18.30
2010,09,17,13,43,18.30
2010,09,17,13,44,18.30
2010,09,17,13,45,18.30
2010,09,17,13,46,18.40
2010,09,17,13,47,18.40
2010,09,17,13,48,18.40
2010,09,17,13,49,18.40
2010,09,17,13,50,18.40
2010,09,17,13,51,18.50
2010,09,17,13,52,18.60
2010,09,17,13,53,18.70
2010,09,17,13,54,18.70
2010,09,17,13,55,18.80
2010,09,17,13,56,18.90
2010,09,17,13,57,18.90
2010,09,17,13,58,18.90
2010,09,17,13,59,18.90
2010,09,17,14,00,18.80
2010,09,17,14,01,18.80
2010,09,17,14,02,18.90
2010,09,17,14,03,18.90
2010,09,17,14,04,18.90
2010,09,17,14,05,18.90
2010,09,17,14,06,19.00
2010,09,17,14,07,19.00
2010,09,17,14,08,19.10
2010,09,17,14,09,19.00
2010,09,17,14,10,19.10
2010,09,17,14,11,19.10
2010,09,17,14,12,19.10
2010,09,17,14,13,19.20
2010,09,17,14,14,19.20
2010,09,17,14,15,19.20
2010,09,17,14,16,19.20
2010,09,17,14,17,19.30
2010,09,17,14,18,19.30
2010,09,17,14,19,19.40
2010,09,17,14,20,19.40
2010,09,17,14,21,19.40
2010,09,17,14,22,19.40
2010,09,17,14,23,19.40
2010,09,17,14,24,19.40
2010,09,17,14,25,19.40
2010,09,17,14,26,19.40
2010,09,17,14,27,19.40
2010,09,17,14,28,19.40
2010,09,17,14,29,19.40
2010,09,17,14,30,19.40
2010,09,17,14,31,19.40
2010,09,17,14,32,19.40
2010,09,17,14,33,19.40
2010,09,17,14,34,19.40
2010,09,17,14,35,19.40
2010,09,17,14,36,19.40
2010,09,17,14,37,19.40
2010,09,17,14,38,19.40
2010,09,17,14,39,19.30
2010,09,17,14,40,19.40
2010,09,17,14,41,19.40
2010,09,17,14,42,19.40
2010,09,17,14,43,19.40
2010,09,17,14,44,19.40
2010,09,17,14,45,19.50
2010,09,17,14,46,19.50
2010,09,17,14,47,19.50
2010,09,17,14,48,19.40
2010,09,17,14,49,19.50
2010,09,17,14,50,19.50
2010,09,17,14,51,19.60
2010,09,17,14,52,19.60
2010,09,17,14,53,19.60
2010,09,17,14,54,19.60
2010,09,17,14,55,19.60
2010,09,17,14,56,19.60
2010,09,17,14,57,19.60
2010,09,17,14,58,19.60
2010,09,17,14,59,19.50
2010,09,17,15,00,19.50
2010,09,17,15,01,19.50
2010,09,17,15,02,19.50
2010,09,17,15,03,19.50
2010,09,17,15,04,19.40
2010,09,17,15,05,19.40
2010,09,17,15,06,19.30
2010,09,17,15,07,19.30
2010,09,17,15,08,19.30
2010,09,17,15,09,19.30
2010,09,17,15,10,19.30
2010,09,17,15,11,19.20
2010,09,17,15,12,19.20
2010,09,17,15,13,19.20
2010,09,17,15,14,19.20
2010,09,17,15,15,19.20
2010,09,17,15,16,19.20
2010,09,17,15,17,19.20
2010,09,17,15,18,19.20
2010,09,17,15,19,19.20
2010,09,17,15,20,19.20
2010,09,17,15,21,19.30
2010,09,17,15,22,19.30
2010,09,17,15,23,19.30
2010,09,17,15,24,19.30
2010,09,17,15,25,19.30
2010,09,17,15,26,19.30
2010,09,17,15,27,19.30
2010,09,17,15,28,19.30
2010,09,17,15,29,19.30
2010,09,17,15,30,19.30
2010,09,17,15,31,19.30
2010,09,17,15,32,19.30
2010,09,17,15,33,19.30
2010,09,17,15,34,19.30
2010,09,17,15,35,19.30
2010,09,17,15,36,19.30
2010,09,17,15,37,19.30
2010,09,17,15,38,19.30
2010,09,17,15,39,19.30
2010,09,17,15,40,19.40
2010,09,17,15,41,19.40
2010,09,17,15,42,19.40
2010,09,17,15,43,19.50
2010,09,17,15,44,19.50
2010,09,17,15,45,19.60
2010,09,17,15,46,19.60
2010,09,17,15,47,19.70
2010,09,17,15,48,19.70
2010,09,17,15,49,19.70
2010,09,17,15,50,19.70
2010,09,17,15,51,19.70
2010,09,17,15,52,19.70
2010,09,17,15,53,19.70
2010,09,17,15,54,19.70
2010,09,17,15,55,19.70
2010,09,17,15,56,19.70
2010,09,17,15,57,19.70
2010,09,17,15,58,19.70
2010,09,17,15,59,19.70
2010,09,17,16,00,19.70
2010,09,17,16,01,19.70
2010,09,17,16,02,19.80
2010,09,17,16,03,19.80
2010,09,17,16,04,19.80
2010,09,17,16,05,19.80
2010,09,17,16,06,19.80
2010,09,17,16,07,19.80
2010,09,17,16,08,19.80
2010,09,17,16,09,19.80
2010,09,17,16,10,19.70
2010,09,17,16,11,19.70
2010,09,17,16,12,19.70
2010,09,17,16,13,19.70
2010,09,17,16,14,19.70
2010,09,17,16,15,19.70
2010,09,17,16,16,19.70
2010,09,17,16,17,19.70
2010,09,17,16,18,19.70
2010,09,17,16,19,19.70
2010,09,17,16,20,19.70
2010,09,17,16,21,19.60
2010,09,17,16,22,19.60
2010,09,17,16,23,19.60
2010,09,17,16,24,19.60
2010,09,17,16,25,19.60
2010,09,17,16,26,19.60
2010,09,17,16,27,19.60
2010,09,17,16,28,19.60
2010,09,17,16,29,19.60
2010,09,17,16,30,19.60
2010,09,17,16,31,19.60
2010,09,17,16,32,19.60
2010,09,17,16,33,19.60
2010,09,17,16,34,19.60
2010,09,17,16,35,19.60
2010,09,17,16,36,19.60
2010,09,17,16,37,19.60
2010,09,17,16,38,19.60
2010,09,17,16,39,19.60
2010,09,17,16,40,19.50
2010,09,17,16,41,19.50
2010,09,17,16,42,19.50
2010,09,17,16,43,19.50
2010,09,17,16,44,19.50
2010,09,17,16,45,19.40
2010,09,17,16,46,19.40
2010,09,17,16,47,19.40
2010,09,17,16,48,19.40
2010,09,17,16,49,19.40
2010,09,17,16,50,19.40
2010,09,17,16,51,19.40
2010,09,17,16,52,19.40
2010,09,17,16,53,19.30
2010,09,17,16,54,19.30
2010,09,17,16,55,19.30
2010,09,17,16,56,19.30
2010,09,17,16,57,19.30
2010,09,17,16,58,19.30
2010,09,17,16,59,19.30
2010,09,17,17,00,19.30
2010,09,17,17,01,19.30
2010,09,17,17,02,19.30
2010,09,17,17,03,19.30
2010,09,17,17,04,19.30
2010,09,17,17,05,19.30
2010,09,17,17,06,19.30
2010,09,17,17,07,19.30
2010,09,17,17,08,19.30
2010,09,17,17,09,19.30
2010,09,17,17,10,19.30
2010,09,17,17,11,19.30
2010,09,17,17,12,19.30
2010,09,17,17,13,19.30
2010,09,17,17,14,19.30
2010,09,17,17,15,19.30
2010,09,17,17,16,19.30
2010,09,17,17,17,19.30
2010,09,17,17,18,19.30
2010,09,17,17,19,19.30
2010,09,17,17,20,19.30
2010,09,17,17,21,19.30
2010,09,17,17,22,19.30
2010,09,17,17,23,19.30
2010,09,17,17,24,19.30
2010,09,17,17,25,19.30
2010,09,17,17,26,19.30
2010,09,17,17,27,19.30
2010,09,17,17,28,19.30
2010,09,17,17,29,19.30
2010,09,17,17,30,19.30
2010,09,17,17,31,19.30
2010,09,17,17,32,19.20
2010,09,17,17,33,19.20
2010,09,17,17,34,19.20
2010,09,17,17,35,19.20
2010,09,17,17,36,19.20
2010,09,17,17,37,19.20
2010,09,17,17,38,19.20
2010,09,17,17,39,19.20
2010,09,17,17,40,19.20
2010,09,17,17,41,19.20
2010,09,17,17,42,19.20
2010,09,17,17,43,19.20
2010,09,17,17,44,19.20
